This demonstration page uses our WeatherBlox Daily Observations layout. Learn more.

Left ArrowRight Arrow

36.17497, -115.13722

Hourly Observations for January 7, 2020

Temp ( °F °C ) Dew Point ( °F °C ) Humidity (%) Winds ( mph kmh ) Pressure ( in mb ) Visibility ( mi km ) Precip ( " mm )
12:53 am 00:53 Clear 43 6.1 21 -6.1 42 42 WNW 3 6 30.43 1031 10 16.0934 0 0
1:53 am 01:53 Clear 42 5.6 22 -5.6 45 45 WNW 3 6 30.43 1030 10 16.0934 0 0
2:53 am 02:53 Clear 40 4.4 22 -5.6 49 49 WNW 7 11 30.41 1030 10 16.0934 0 0
3:53 am 03:53 Clear 39 3.9 22 -5.6 50 50 W 6 9 30.41 1030 10 16.0934 0 0
4:53 am 04:53 Clear 40 4.4 22 -5.6 49 49 NNW 3 6 30.41 1030 10 16.0934 0 0
5:53 am 05:53 Clear 39 3.9 22 -5.6 50 50 WNW 3 6 30.4 1030 10 16.0934 0 0
6:53 am 06:53 Sunny 38 3.3 22 -5.6 52 52 W 5 7 30.41 1030 10 16.0934 0 0
7:53 am 07:53 Sunny 42 5.6 22 -5.6 45 45 NW 3 6 30.42 1030 10 16.0934 0 0
8:53 am 08:53 Sunny 46 7.8 22 -5.6 38 38 Calm 30.41 1030 10 16.0934 0 0
9:53 am 09:53 Sunny 51 10.6 22 -5.6 32 32 Calm 30.4 1029 10 16.0934 0 0
10:53 am 10:53 Sunny 53 11.7 21 -6.1 28 28 Calm 30.34 1028 10 16.0934 0 0
11:53 am 11:53 Sunny 55 12.8 21 -6.1 26 26 SE 6 9 30.29 1026 10 16.0934 0 0
12:53 pm 12:53 Sunny 57 13.9 21 -6.1 25 25 VRB 6 9 30.24 1024 10 16.0934 0 0
1:53 pm 13:53 Sunny 59 15 20 -6.7 22 22 SE 5 7 30.21 1023 10 16.0934 0 0
2:53 pm 14:53 Sunny 59 15 20 -6.7 22 22 SE 3 6 30.19 1022 10 16.0934 0 0
3:53 pm 15:53 Sunny 59 15 20 -6.7 22 22 SE 5 7 30.17 1022 10 16.0934 0 0
4:53 pm 16:53 Clear 57 13.9 22 -5.6 26 26 S 5 7 30.15 1021 10 16.0934 0 0
5:53 pm 17:53 Clear 53 11.7 23 -5 31 31 ESE 3 6 30.14 1021 10 16.0934 0 0
6:53 pm 18:53 Clear 50 10 25 -3.9 38 38 E 3 6 30.14 1021 10 16.0934 0 0
7:53 pm 19:53 Clear 50 10 25 -3.9 38 38 Calm 30.12 1020 10 16.0934 0 0
8:53 pm 20:53 Clear 48 8.9 25 -3.9 41 41 Calm 30.11 1020 10 16.0934 0 0
9:53 pm 21:53 Clear 47 8.3 27 -2.8 46 46 Calm 30.09 1019 10 16.0934 0 0
10:53 pm 22:53 Clear 45 7.2 27 -2.8 49 49 Calm 30.06 1018 10 16.0934 0 0
11:53 pm 23:53 Clear 45 7.2 27 -2.8 49 49 NW 3 6 30.04 1017 10 16.0934 0 0

Powered by AerisWeather